COSMOS 2477 (745)

Last updated on Thu Jul 03 2025 00:03:17 GMT+0000 (Coordinated Universal Time)

1 37868U 11064B 25183.36827178 -.00000045 00000+0 00000+0 0 9993 2 37868 65.0767 84.7753 0019329 238.8642 296.5446 2.13103144106301
UTC large
Height (km)
Speed (km/s)
/
Latitude / Longitude
Inclination (degrees)
Orbital Period (minutes)
Azimuth
Elevation
Range (km)
Doppler Factor

Next 0 passes for location: London (51.5072 / 0.1276)

Sorry there are no passes over London.